Flag for Germany Weather past 2 weeks in Memmingen, Bavaria, Germany

Now
65 °F

Passing clouds.


Feels Like: 65 °F
Forecast: 36 / 68 °F
Wind: 3 mph from Northeast

Location: Kempten


UV Index: 3 (Moderate)

Visibility: 19 mi


Pressure: 30.01 "Hg

Humidity: 41%

Dew point: 40 °F

Location of MemmingenLocation

Historic Weather in Memmingen

°F

Memmingen temperature yesterday

Maximum temperature yesterday: 60 °F (at 3:00 PM)
Minimum temperature yesterday: 43 °F (at 11:00 PM)
Average temperature yesterday: 51 °F

Past Weeks' High & Low Weather Summary

 TemperatureHumidityPressure
High65 °F (Apr 23, 2:00 PM)98% (Apr 19, 2:00 AM)30.42 "Hg (Apr 19, 2:00 AM)
Low25 °F (Apr 17, 7:00 AM)29% (Apr 17, 4:00 PM)29.60 "Hg (Apr 21, 2:00 PM)
Average45 °F73%30.04 "Hg
* Reported Apr 8 7:00 PM — Apr 23 2:00 PM, Memmingen, Weather by CustomWeather, © 2014

Note: Actual official high and low records may vary slightly from our data, if they occured in-between our weather recording intervals... More about our weather records

Advertising

Historic Weather Conditions — Data for Previous 24 hours

 ConditionsComfort  
Time TempWeatherWind HumidityBarometerVisibility
2:00 PM
Apr 23
65 °FPassing clouds.3 mph41%30.01 "Hg19 mi
1:00 PM64 °FSunny.3 mph43%30.03 "Hg17 mi
12:00 PM63 °FScattered clouds.3 mph48%30.04 "Hg28 mi
11:00 AM59 °FSunny.2 mph59%30.06 "Hg31 mi
10:00 AM56 °FSunny.1 mph65%30.07 "Hg28 mi
9:00 AM49 °FSunny.2 mph78%30.11 "Hg31 mi
8:00 AM44 °FSunny.2 mph88%30.13 "Hg19 mi
7:00 AM36 °FSunny.2 mph97%30.16 "Hg16 mi
6:00 AM35 °FClear.2 mph96%30.16 "Hg12 mi
5:00 AM39 °FClear.2 mph96%30.13 "Hg22 mi
4:00 AM39 °FClear.3 mph96%30.12 "Hg22 mi
3:00 AM39 °FClear.3 mph95%30.11 "Hg19 mi
2:00 AM39 °FClear.3 mph95%30.11 "Hg19 mi
1:00 AM40 °FClear.3 mph95%30.09 "Hg22 mi
12:00 AM41 °FClear.2 mph94%30.08 "Hg19 mi
11:00 PM
Apr 22
43 °FClear.2 mph92%30.06 "Hg31 mi
10:00 PM46 °FClear.2 mph88%30.03 "Hg31 mi
9:00 PM50 °FClear.1 mph81%29.99 "Hg43 mi
8:00 PM55 °FScattered clouds.2 mph68%29.94 "Hg43 mi
7:00 PM57 °FScattered clouds.5 mph64%29.92 "Hg43 mi
6:00 PM58 °FOvercast.3 mph64%29.90 "Hg43 mi
4:00 PM60 °FPartly sunny.2 mph50%29.88 "Hg37 mi
3:00 PM60 °FOvercast.2 mph58%29.88 "Hg40 mi
Weather by CustomWeather, © 2014

See weather overview